Fryeburg, ME

12:49 AM EDT on June 27, 2017 (GMT -0400)
Eastern Slopes Regional

Weather History for KIZG - September, 2013

Change the Weather History Date:

Saturday, September 7, 2013

  Actual Average Record
Temperature  
Mean Temperature 60 °F -  
Max Temperature 77 °F 74 °F 93 °F (2007)
Min Temperature 46 °F 46 °F 33 °F (2000)
Degree Days  
Heating Degree Days 4    
Growing Degree Days 10 (Base 50)    
Moisture  
Dew Point 49 °F    
Average Humidity 68    
Maximum Humidity 96    
Minimum Humidity 42    
Precipitation  
Precipitation 0.00 in - - ()
Sea Level Pressure  
Sea Level Pressure 29.93 in    
Wind  
Wind Speed 2 mph (SW)    
Max Wind Speed 9 mph    
Max Gust Speed -    
Visibility 10 miles    
Events      
Averages and records for this station are not official NWS values.
T = Trace of Precipitation, MM = Missing Value Source: NWS Daily Summary

Daily Weather History Graph

Daily Weather History Graph

Search for Another Location

Airport or City:

Trip Planner

Search our weather history database for the weather conditions in past years. The results will help you decide how hot, cold, wet, or windy it might be!

Date:

Astronomy

Sep. 07, 2013 Rise Set
Actual Time 6:14 AM EDT 7:08 PM EDT
Civil Twilight 5:44 AM EDT 7:37 PM EDT
Nautical Twilight 5:09 AM EDT 8:12 PM EDT
Astronomical Twilight 4:33 AM EDT 8:49 PM EDT
Moon 8:31 AM EDT (9/7) 7:57 PM EDT (9/7)
Length of Visible Light 13h 53m
Length of Day
12h 54m
Waxing Crescent, 5% of the Moon is Illuminated
Sep 7
Waxing Crescent
Sep 12
First Quarter
Sep 19
Full
Sep 26
Last Quarter
Oct 4
New

Hourly Weather History & Observations

Time (EDT) Temp. Dew Point Humidity Pressure Visibility Wind Dir Wind Speed Gust Speed Precip Events Conditions
12:54 AM 48.0 °F 45.0 °F 89% 30.04 in 10.0 mi Calm Calm - N/A   Clear
1:54 AM 46.0 °F 44.1 °F 93% 30.03 in 10.0 mi Calm Calm - N/A   Clear
2:54 AM 46.0 °F 44.1 °F 93% 30.02 in 10.0 mi Calm Calm - N/A   Mostly Cloudy
3:54 AM 48.0 °F 46.0 °F 93% 30.02 in 10.0 mi Calm Calm - N/A   Overcast
4:54 AM 48.0 °F 46.9 °F 96% 30.02 in 10.0 mi Calm Calm - N/A   Scattered Clouds
5:54 AM 48.0 °F 46.0 °F 93% 30.03 in 10.0 mi Calm Calm - N/A   Mostly Cloudy
6:54 AM 48.9 °F 46.9 °F 93% 30.02 in 10.0 mi Calm Calm - N/A   Partly Cloudy
7:54 AM 52.0 °F 48.9 °F 89% 30.01 in 10.0 mi Calm Calm - N/A   Scattered Clouds
8:54 AM 57.0 °F 50.0 °F 77% 30.00 in 10.0 mi Calm Calm - N/A   Clear
9:54 AM 64.0 °F 53.1 °F 67% 29.98 in 10.0 mi Calm Calm - N/A   Clear
10:54 AM 64.9 °F 53.1 °F 65% 29.96 in 10.0 mi Calm Calm - N/A   Partly Cloudy
11:54 AM 72.0 °F 52.0 °F 49% 29.95 in 10.0 mi Calm Calm - N/A   Partly Cloudy
12:54 PM 75.9 °F 51.1 °F 42% 29.92 in 10.0 mi SW 6.9 mph - N/A   Clear
1:54 PM 70.0 °F 48.0 °F 46% 29.90 in 10.0 mi SSW 5.8 mph - N/A   Overcast
2:54 PM 73.0 °F 52.0 °F 48% 29.88 in 10.0 mi SSW 9.2 mph - N/A   Clear
3:54 PM 71.1 °F 51.1 °F 49% 29.86 in 10.0 mi SW 6.9 mph - N/A   Clear
4:54 PM 70.0 °F 51.1 °F 51% 29.86 in 10.0 mi WSW 5.8 mph - N/A   Partly Cloudy
5:54 PM 66.9 °F 48.9 °F 52% 29.86 in 10.0 mi WSW 6.9 mph - N/A   Partly Cloudy
6:54 PM 66.0 °F 46.9 °F 50% 29.86 in 10.0 mi WSW 6.9 mph - N/A   Mostly Cloudy
7:54 PM 66.0 °F 46.0 °F 48% 29.85 in 10.0 mi SW 6.9 mph - N/A   Partly Cloudy
8:54 PM 64.9 °F 48.0 °F 54% 29.85 in 10.0 mi Variable 3.5 mph - N/A   Overcast
9:54 PM 62.1 °F 53.1 °F 72% 29.84 in 10.0 mi South 3.5 mph - 0.00 in   Overcast
10:54 PM 62.1 °F 51.1 °F 67% 29.82 in 10.0 mi SW 6.9 mph - 0.00 in   Scattered Clouds
11:54 PM 63.0 °F 48.9 °F 60% 29.80 in 10.0 mi SW 4.6 mph - N/A   Clear